Regional Weather Roundup
Issued by NWS

Home | Current Version | Previous Version | Text Only | Print | Product List | Glossary On
Versions: 1 2 3 4 5 6 7 8 9 10 11 12 13 14 15 16 17 18 19 20 21 22 23 24 25 26 27 28 29 30 31 32 33 34 35 36 37 38 39 40 41 42 43 44 45 46 47 48 49 50
373
ASUS43 KDTX 041901
RWRMI
MICHIGAN HOURLY REGIONAL WEATHER ROUNDUP
NATIONAL WEATHER SERVICE DETROIT/PONTIAC MI
300 PM EDT WED MAY 04 2016

NOTE: "FAIR" INDICATES FEW OR NO CLOUDS BELOW 12,000 FEET WITH NO
SIGNIFICANT WEATHER AND/OR OBSTRUCTION TO VISIBILITY.

MIZ047>049-052>055-059>063-066>070-074>076-081>083-042000-
SOUTHEAST LOWER MICHIGAN

CITY           SKY/WX    TMP DP  RH WIND       PRES   REMARKS
ADRIAN         CLOUDY    51  44  77 NW16G22   29.57S
ALMA           RAIN      46  45  95 N18       29.59R
ANN ARBOR      LGT RAIN  51  48  89 SE12      29.55S
BAD AXE        MOSUNNY   63  44  50 SE9G17    29.60R
CARO           CLOUDY    61  44  54 S12G21    29.57R
DETROIT CITY   CLOUDY    60  45  57 E15       29.57
DETROIT        LGT RAIN  56  46  69 SE14G25   29.59R
FLINT          LGT RAIN  54  45  71 E7        29.56F
GROSSE ILE     LGT RAIN  55  48  76 S9        29.58R
HILLSDALE      CLOUDY    47  39  74 W21       29.58S
HOWELL         LGT RAIN  50  47  90 SE7       29.55R

CITY           SKY/WX    TMP DP  RH WIND       PRES   REMARKS
JACKSON        CLOUDY    47  43  86 W9G21     29.56R
LAMBERTVILLE   RAIN      54  47  78 W8G17     29.58R
LANSING        CLOUDY    49  47  93 N9        29.55S
LAPEER         CLOUDY    60  41  50 S8G18     29.57S
MASON          CLOUDY    53  46  76 S9        29.53F
MONROE         CLOUDY    53  50  91 S9        29.56F
PONTIAC        CLOUDY    53  46  77 S9        29.56F
PORT HOPE        N/A     52  45  77 SE16      29.60S
PORT HURON     PTSUNNY   61  43  51 SE12G17   29.61S
TRI CITIES     CLOUDY    53  47  79 NE16      29.59R
MIDLAND        CLOUDY    48  47  94 NW13G21   29.58F
TROY           CLOUDY    62  42  48 SE7G17    29.58F
SAGINAW HB     LGT RAIN  50  45  81 N12G24    29.58R
$$
MIZ043>046-050>051-056>058-064>065-071>073-077>080-042000-
SOUTHWEST LOWER MICHIGAN

CITY           SKY/WX    TMP DP  RH WIND       PRES   REMARKS
BATTLE CREEK   LGT RAIN  46  42  86 NW15      29.61S
BENTON HARBOR  CLOUDY    43  35  73 NW15G31   29.74R
BIG RAPIDS     LGT RAIN  42  37  84 N18G28    29.66R
COLDWATER      CLOUDY    46  41  83 NW15G23   29.61R
FREMONT        RAIN      42  41  96 N18       29.67S
HOLLAND        LGT RAIN N/A N/A N/A NW16G23   29.68R
GRAND RAPIDS   LGT RAIN  45  41  86 N13G24    29.63R
IONIA          RAIN      44  42  95 N15G26    29.57S
KALAMAZOO      LGT RAIN  46  40  79 NW17G24   29.64R
LUDINGTON      DRIZZLE   41  37  86 N18G29    29.75S
MARSHALL       CLOUDY    45  42  89 W13G20    29.59R
MOUNT PLEASANT MIX PCPN  45  44  95 N16G24    29.61S
MUSKEGON       LGT RAIN  43  37  79 N20G26    29.70S
$$
MIZ016>042-042000-
NORTHERN LOWER MICHIGAN

CITY           SKY/WX    TMP DP  RH WIND       PRES   REMARKS
ALPENA         CLOUDY    47  43  86 N10       29.69R
BEAVER ISLAND  PTSUNNY   49  36  61 N14G21    29.78R
BELLAIRE       LGT RAIN  45  40  82 N7        29.75R
CADILLAC       MIX PCPN  39  37  91 N13G24    29.69S WCI  32
CHARLEVOIX     CLOUDY    43  38  84 N12       29.78S
FRANKFORT      CLOUDY    43  36  75 N15G21    29.78R
GAYLORD        LGT RAIN  45  43  93 N7        29.70R
HARBOR SPRINGS LGT RAIN  47  41  79 N8        29.73S
HOUGHTON LAKE  CLOUDY    45  41  86 N18G25    29.66S
MANISTEE       CLOUDY    43  34  70 N12G23    29.77R
OSCODA         CLOUDY    52  42  69 NE13      29.64R
PELLSTON       LGT RAIN  48  40  73 N13       29.74S
ROGERS CITY    DRIZZLE   43  41  95 N9        29.72S
TRAVERSE CITY  LGT RAIN  44  36  73 N12G21    29.75R
$$
MIZ007>008-015-042000-
EASTERN UPPER MICHIGAN

CITY           SKY/WX    TMP DP  RH WIND       PRES   REMARKS
KINROSS          N/A     45  37  76 NW17G23   29.75R
MACKINAC ISLAN CLOUDY    48  39  71 N14G20    29.75R
NEWBERRY       CLOUDY    46  34  64 N15G25    29.79S
S. S. MARIE    CLOUDY    47  36  65 NW10      29.75R
MUNISING         N/A     39  31  72 NW21G29   29.88R WCI  29
$$
MIZ004>006-011>014-085-042000-
CENTRAL UPPER MICHIGAN

CITY           SKY/WX    TMP DP  RH WIND       PRES   REMARKS
MANISTIQUE     CLOUDY    47  32  56 N23G29    29.81R
ESCANABA       CLOUDY    45  30  57 N20G30    29.84S
MENOMINEE      CLOUDY    52  34  50 N18       29.84R
SAWYER-GWINN   CLOUDY    37  30  75 N24G30    29.89R WCI  26
$$
MIZ001>003-009>011-084-042000-
WESTERN UPPER MICHIGAN

CITY           SKY/WX    TMP DP  RH WIND       PRES   REMARKS
IRON MOUNTAIN  CLOUDY    45  32  60 N18G31    29.86R
HOUGHTON       CLOUDY    40  30  67 N20G29    29.94R WCI  30
COPPER HARBOR    N/A     40  34  79 N15       29.94S WCI  32
IRONWOOD         N/A     45  30  57 N9G16     29.95S
$$

ABBREVIATIONS USED IN REMARKS
   TC - TEMPERATURE IN CELSIUS
  WCI - WIND CHILL INDEX
   HX - HEAT INDEX
  VSB - VISIBILITY





USA.gov is the U.S. government's official web portal to all federal, state and local government web resources and services.